This demonstration page uses our WeatherBlox Daily Observations layout. Learn more.

39.51506, -84.39828

Hourly Observations for July 16, 2019

Temp ( °F °C ) Dew Point ( °F °C ) Humidity (%) Winds ( mph kmh ) Pressure ( in mb ) Visibility ( mi km ) Precip ( " mm )
12:15 am 00:15 Partly Cloudy 71 21.5 70 21.1 98 98 Calm 30.06 1018 10 16.09344 N/A
12:35 am 00:35 Mostly Cloudy 71 21.5 70 21.2 98 98 Calm 30.06 1018 10 16.09344 N/A
12:55 am 00:55 Cloudy 71 21.7 70 21.3 98 98 Calm 30.06 1018 10 16.09344 N/A
1:15 am 01:15 Cloudy 71 21.6 70 21.2 98 98 Calm 30.06 1018 10 16.09344 N/A
1:35 am 01:35 Cloudy 71 21.6 70 21.2 98 98 Calm 30.06 1018 10 16.09344 N/A
1:55 am 01:55 Cloudy 71 21.7 70 21.3 98 98 Calm 30.06 1018 10 16.09344 N/A
2:15 am 02:15 Cloudy 71 21.7 70 21.3 98 98 Calm 30.06 1018 10 16.09344 N/A
2:35 am 02:35 Mostly Cloudy 71 21.9 71 21.4 97 97 Calm 30.06 1018 10 16.09344 N/A
2:55 am 02:55 Clear 72 22.3 71 21.5 95 95 SSE 5 7 30.06 1018 10 16.09344 N/A
3:15 am 03:15 Mostly Cloudy 73 22.5 71 21.5 94 94 SSE 3 6 30.06 1018 10 16.09344 N/A
3:35 am 03:35 Mostly Cloudy 73 22.5 71 21.4 94 94 Calm 30.03 1017 10 16.09344 N/A
3:55 am 03:55 Partly Cloudy 72 22.4 71 21.4 94 94 S 3 6 30.03 1017 10 16.09344 N/A
4:15 am 04:15 Partly Cloudy 72 22.3 71 21.4 95 95 SSE 3 6 30.03 1017 10 16.09344 N/A
4:35 am 04:35 Partly Cloudy 72 22.3 71 21.5 95 95 Calm 30.03 1017 10 16.09344 N/A
4:55 am 04:55 Clear 72 22.4 71 21.6 95 95 S 3 6 30.03 1017 10 16.09344 N/A
5:15 am 05:15 Partly Cloudy 72 22.3 71 21.4 95 95 Calm 30.03 1017 10 16.09344 N/A
5:35 am 05:35 Mostly Cloudy 72 22 70 21.3 96 96 Calm 30.03 1017 7 11.265408 N/A
5:55 am 05:55 Partly Cloudy 72 22.3 71 21.5 95 95 SSE 3 6 30.03 1017 10 16.09344 N/A
6:15 am 06:15 Cloudy 72 22.4 71 21.6 95 95 Calm 30.03 1017 10 16.09344 N/A
6:35 am 06:35 Mostly Cloudy 73 22.5 71 21.6 95 95 SE 3 6 30.03 1017 10 16.09344 N/A
6:55 am 06:55 Cloudy 73 22.7 71 21.7 94 94 S 5 7 30.03 1017 10 16.09344 N/A
7:15 am 07:15 Cloudy 73 22.8 71 21.8 94 94 SE 3 6 30.03 1017 10 16.09344 N/A
7:35 am 07:35 Mostly Cloudy 73 23 71 21.9 94 94 S 3 6 30.03 1017 10 16.09344 N/A
7:55 am 07:55 Mostly Cloudy 75 23.7 72 22.1 91 91 SSW 5 7 30.03 1017 10 16.09344 N/A
8:15 am 08:15 Mostly Cloudy 75 23.8 72 22.1 90 90 SSW 5 7 30.03 1017 10 16.09344 N/A
8:35 am 08:35 Mostly Cloudy 75 24 72 22.3 90 90 SSW 3 6 30.06 1018 10 16.09344 N/A
8:55 am 08:55 Cloudy 77 24.8 72 22.2 86 86 S 3 6 30.06 1018 10 16.09344 N/A
9:15 am 09:15 Mostly Cloudy 78 25.3 72 22 82 82 S 7 11 30.06 1018 10 16.09344 N/A
9:35 am 09:35 Cloudy 78 25.7 71 21.9 80 80 SSW 9 15 30.03 1017 10 16.09344 N/A
9:55 am 09:55 Mostly Cloudy 79 26 71 21.8 78 78 SSW 10 17 30.03 1017 10 16.09344 N/A
10:15 am 10:15 Sunny 80 26.4 72 22 77 77 SSW 9 15 30.03 1017 10 16.09344 N/A
10:35 am 10:35 Sunny 81 27.1 72 22.3 75 75 SSW 14 22 30.03 1017 10 16.09344 N/A
10:55 am 10:55 Sunny 81 27.4 72 22.3 74 74 SSW 12 19 30.03 1017 10 16.09344 N/A
11:15 am 11:15 Sunny 82 27.7 72 22.3 72 72 S 14 22 30.03 1017 10 16.09344 N/A
11:35 am 11:35 Sunny 82 28 73 22.5 72 72 S 12 19 30.03 1017 10 16.09344 N/A
11:55 am 11:55 Sunny 85 29.2 73 22.8 68 68 S 10 17 30 1016 10 16.09344 N/A
12:15 pm 12:15 Sunny 85 29.4 72 22.1 65 65 S 18 30 29.97 1015 10 16.09344 N/A
12:35 pm 12:35 Partly Cloudy 85 29.5 72 22.4 66 66 SSW 14 22 29.97 1015 10 16.09344 N/A
12:55 pm 12:55 Partly Cloudy 86 29.8 72 22.1 63 63 SSW 15 24 29.97 1015 10 16.09344 N/A
1:15 pm 13:15 Mostly Cloudy 86 30 71 21.9 62 62 S 15 24 29.97 1015 10 16.09344 N/A
1:35 pm 13:35 Mostly Cloudy 88 31.3 71 21.9 57 57 SW 17 28 29.97 1015 10 16.09344 N/A
1:55 pm 13:55 Partly Cloudy 88 31.1 71 21.7 57 57 S 16 26 29.97 1015 10 16.09344 N/A
2:15 pm 14:15 Partly Cloudy 89 31.6 72 22 57 57 SSW 16 26 29.94 1014 10 16.09344 N/A
2:35 pm 14:35 Mostly Cloudy 89 31.8 72 22.3 57 57 SSW 12 19 29.94 1014 10 16.09344 N/A
2:55 pm 14:55 Mostly Cloudy 89 31.5 70 21.2 54 54 S 15 24 29.94 1014 10 16.09344 N/A
3:15 pm 15:15 Partly Cloudy 89 31.9 70 21.1 53 53 S 16 26 29.91 1013 10 16.09344 N/A
3:35 pm 15:35 Cloudy with Heavy Rain 81 27.4 71 21.8 72 72 SSW 29 46 30 1016 2 3.218688 0.05 1.27
3:55 pm 15:55 Mostly Cloudy 76 24.5 73 22.8 90 90 SSW 3 6 29.97 1015 10 16.09344 0.25 6.35
4:15 pm 16:15 Sunny 81 27.1 74 23.6 81 81 SW 6 9 29.94 1014 10 16.09344 N/A
4:35 pm 16:35 Partly Cloudy 82 28 76 24.2 80 80 SSW 7 11 29.91 1013 10 16.09344 N/A
4:55 pm 16:55 Sunny 83 28.4 75 23.8 76 76 S 10 17 29.91 1013 10 16.09344 N/A
5:15 pm 17:15 Mostly Cloudy 83 28.2 75 23.8 77 77 SSW 9 15 29.91 1013 10 16.09344 N/A
5:35 pm 17:35 Mostly Cloudy 83 28.4 75 23.8 76 76 WSW 8 13 29.91 1013 10 16.09344 N/A
5:55 pm 17:55 Partly Cloudy 82 27.5 71 21.9 72 72 W 14 22 29.94 1014 10 16.09344 N/A
6:15 pm 18:15 Sunny 81 27.1 71 21.8 73 73 WSW 8 13 29.94 1014 10 16.09344 N/A
6:35 pm 18:35 Sunny 82 27.8 72 22.1 71 71 WSW 8 13 29.91 1013 10 16.09344 N/A
6:55 pm 18:55 Sunny 81 27.4 72 22.1 73 73 WSW 6 9 29.94 1014 10 16.09344 N/A
7:15 pm 19:15 Partly Cloudy 82 27.7 71 21.8 70 70 WSW 6 9 29.91 1013 10 16.09344 N/A
7:35 pm 19:35 Mostly Cloudy 82 27.9 72 22.1 71 71 WSW 6 9 29.91 1013 10 16.09344 N/A
7:55 pm 19:55 Partly Cloudy 82 27.9 72 22.3 72 72 WSW 3 6 29.91 1013 10 16.09344 N/A
8:15 pm 20:15 Sunny 81 27.4 73 22.8 76 76 Calm 29.94 1014 10 16.09344 N/A
8:35 pm 20:35 Partly Cloudy 80 26.8 73 23 80 80 SW 3 6 29.94 1014 10 16.09344 N/A
8:55 pm 20:55 Partly Cloudy 81 27 73 22.6 77 77 Calm 29.91 1013 10 16.09344 N/A
9:15 pm 21:15 Mostly Cloudy 77 25.2 75 23.9 93 93 Calm 29.91 1013 10 16.09344 N/A
9:35 pm 21:35 Mostly Cloudy 78 25.6 73 22.9 85 85 Calm 29.91 1013 10 16.09344 N/A
9:55 pm 21:55 Cloudy 78 25.8 74 23.2 86 86 Calm 29.94 1014 10 16.09344 N/A
10:15 pm 22:15 Mostly Cloudy with Light Rain 78 25.5 73 22.9 86 86 Calm 29.91 1013 7 11.265408 0.02 0.508
10:35 pm 22:35 Mostly Cloudy 76 24.3 74 23.6 96 96 Calm 29.94 1014 10 16.09344 0.02 0.508
10:55 pm 22:55 Cloudy with Light Rain 76 24.3 73 23 92 92 S 5 7 29.94 1014 4 6.437376 0.11 2.794
11:15 pm 23:15 Partly Cloudy 76 24.5 74 23.2 92 92 Calm 29.94 1014 10 16.09344 0.03 0.762
11:35 pm 23:35 Cloudy 76 24.5 74 23.2 92 92 S 8 13 29.94 1014 10 16.09344 0.03 0.762
11:55 pm 23:55 Cloudy with Rain 75 23.7 73 22.7 94 94 SSW 10 17 29.94 1014 7 11.265408 0.06 1.524

Powered by AerisWeather